Location: Unspecified
(0.0000°N, 0.0000°E)
Time: 02:13:59
(UTC+02:00)

Orbus 21S - Visible Passes

Search period start: 28 August 2015 00:00
Search period end: 07 September 2015 00:00
Orbit: 293 x 33306 km, 24.6° (Epoch: 26 August)

Date Brightness Start Highest point End Pass type
(mag) Time Alt. Az. Time Alt. Az. Time Alt. Az.
29 Aug 7.0 04:40:11 68° WNW 04:48:15 77° NNW 13:36:05 10° E visible
31 Aug 7.3 05:27:10 46° W 05:56:07 68° NNW 14:26:11 10° ESE visible
01 Sep 8.2 00:57:57 16° E 00:57:57 16° E 09:10:24 10° ENE visible
02 Sep 6.9 06:14:07 28° W 14:59:08 87° NNE 15:15:22 10° ESE visible
03 Sep 7.8 01:44:53 33° E 01:44:53 33° E 10:16:00 10° E visible
04 Sep 6.4 07:01:01 13° W 15:52:40 77° SSW 16:03:54 10° SE visible
05 Sep 7.5 02:31:46 52° ENE 02:31:46 52° ENE 11:13:07 10° E visible
